This is the latest recevied weather packets stored in our database for station/object LX0APE-4. If no packets are shown the sender has not sent any weather packets the latest 10 day(s).
| Time | Temp. | Humidity | Pressure | Rain* | Wind** | Luminosity | Snow |
|---|---|---|---|---|---|---|---|
| 1777492926 | 13.89° C | 32% | 5019.1 hPa | 0 mm | - | - | - |
| 1777492626 | 13.89° C | 32% | 5019.1 hPa | 0 mm | - | - | - |
| 1777492326 | 13.89° C | 32% | 5019 hPa | 0 mm | - | - | - |
| 1777492026 | 13.89° C | 31% | 5019.1 hPa | 0 mm | - | - | - |
| 1777491726 | 14.44° C | 31% | 5019 hPa | 0 mm | - | - | - |
| 1777491426 | 14.44° C | 31% | 5019 hPa | 0 mm | - | - | - |
| 1777491126 | 14.44° C | 30% | 5018.8 hPa | 0 mm | - | - | - |
| 1777490826 | 14.44° C | 30% | 5018.9 hPa | 0 mm | - | - | - |
| 1777490530 | 15° C | 30% | 5018.8 hPa | 0 mm | - | - | - |
| 1777490526 | 15° C | 30% | 5018.8 hPa | 0 mm | - | - | - |
| 1777490226 | 15° C | 29% | 5018.7 hPa | 0 mm | - | - | - |
| 1777489926 | 15° C | 29% | 5018.8 hPa | 0 mm | - | - | - |
| 1777489626 | 15° C | 28% | 5018.7 hPa | 0 mm | - | - | - |
| 1777489326 | 15.56° C | 28% | 5018.7 hPa | 0 mm | - | - | - |
| 1777489026 | 15.56° C | 28% | 5018.7 hPa | 0 mm | - | - | - |
| 1777488730 | 15.56° C | 28% | 5018.4 hPa | 0 mm | - | - | - |
| 1777488726 | 15.56° C | 28% | 5018.4 hPa | 0 mm | - | - | - |
| 1777488426 | 16.11° C | 27% | 5018.4 hPa | 0 mm | - | - | - |
| 1777488126 | 16.11° C | 27% | 5018.4 hPa | 0 mm | - | - | - |
| 1777487830 | 16.67° C | 26% | 5018.5 hPa | 0 mm | - | - | - |
| 1777487826 | 16.67° C | 26% | 5018.5 hPa | 0 mm | - | - | - |
| 1777487526 | 17.78° C | 25% | 5018.4 hPa | 0 mm | - | - | - |
| 1777487226 | 18.33° C | 25% | 5018.4 hPa | 0 mm | - | - | - |
| 1777486930 | 18.33° C | 25% | 5018.3 hPa | 0 mm | - | - | - |
| 1777486926 | 18.33° C | 25% | 5018.3 hPa | 0 mm | - | - | - |
* Rain latest hour (hover to see other rain measurements)
** Current wind speed in m/s (hover to see current wind gust speed)